When you browse on this site, cookies collect data to enhance your experience and personalize the content and advertising you see.
Visit our Privacy Policy to learn more. By continuing to use the site, you agree to this use of cookies and data.
  • Em Portugal
  • Lista de países
  • Para 7 dias
  • Temperatura da água
  • Mapas de satélite
  • Mapa do tempo
  • Widgets de tempo
  • user-avatar
    Iniciar Sessão

    Previsão horária em Rovnoe

    Hoje, 24 Abril, Quarta-feira

    Tempo Temperatura Precipitação Vento Pressão Humidade
    00:00 +11°C° 0 mm 1 m/s 760 mmHg 47%
    01:00 +11°C° 0 mm 1 m/s 760 mmHg 48%
    02:00 +10°C° 0 mm 0 m/s 760 mmHg 49%
    03:00 +10°C° 0 mm 1 m/s 760 mmHg 51%
    04:00 +10°C° 0 mm 1 m/s 760 mmHg 53%
    05:00 +10°C° 0 mm 1 m/s 760 mmHg 54%
    06:00 +12°C° 0 mm 1 m/s 760 mmHg 51%
    07:00 +14°C° 0 mm 1 m/s 760 mmHg 47%
    08:00 +16°C° 0 mm 1 m/s 760 mmHg 43%
    09:00 +18°C° 0 mm 2 m/s 760 mmHg 39%
    10:00 +19°C° 0 mm 2 m/s 760 mmHg 34%
    11:00 +21°C° 0 mm 3 m/s 760 mmHg 29%
    12:00 +21°C° 0 mm 3 m/s 760 mmHg 28%
    13:00 +22°C° 0 mm 3 m/s 759 mmHg 27%
    14:00 +22°C° 0 mm 3 m/s 759 mmHg 27%
    15:00 +22°C° 0 mm 3 m/s 759 mmHg 28%
    16:00 +21°C° 0 mm 3 m/s 759 mmHg 30%
    17:00 +21°C° 0 mm 3 m/s 758 mmHg 32%
    18:00 +19°C° 0 mm 2 m/s 758 mmHg 37%
    19:00 +17°C° 0 mm 2 m/s 758 mmHg 42%
    20:00 +15°C° 0 mm 2 m/s 758 mmHg 47%
    21:00 +14°C° 0 mm 2 m/s 758 mmHg 49%
    22:00 +14°C° 0 mm 2 m/s 758 mmHg 50%
    23:00 +13°C° 0 mm 1 m/s 759 mmHg 51%

    Amanhã, 25 Abril, Quinta-feira

    Tempo Temperatura Precipitação Vento Pressão Humidade
    00:00 +12°C° 0 mm 1 m/s 759 mmHg 52%
    01:00 +12°C° 0 mm 1 m/s 759 mmHg 53%
    02:00 +12°C° 0 mm 1 m/s 759 mmHg 54%
    03:00 +11°C° 0 mm 1 m/s 759 mmHg 55%
    04:00 +11°C° 0 mm 1 m/s 759 mmHg 57%
    05:00 +10°C° 0 mm 1 m/s 759 mmHg 58%
    06:00 +12°C° 0 mm 2 m/s 759 mmHg 54%
    07:00 +14°C° 0 mm 2 m/s 759 mmHg 50%
    08:00 +17°C° 0 mm 2 m/s 759 mmHg 46%
    09:00 +18°C° 0 mm 3 m/s 759 mmHg 41%
    10:00 +20°C° 0 mm 3 m/s 759 mmHg 36%
    11:00 +21°C° 0 mm 4 m/s 758 mmHg 31%
    12:00 +22°C° 0 mm 4 m/s 758 mmHg 31%
    13:00 +22°C° 0 mm 4 m/s 758 mmHg 30%
    14:00 +22°C° 0 mm 4 m/s 757 mmHg 30%
    15:00 +22°C° 0 mm 4 m/s 757 mmHg 31%
    16:00 +22°C° 0 mm 4 m/s 756 mmHg 33%
    17:00 +21°C° 0 mm 4 m/s 756 mmHg 35%
    18:00 +19°C° 0 mm 3 m/s 756 mmHg 41%
    19:00 +17°C° 0 mm 3 m/s 756 mmHg 47%
    20:00 +15°C° 0 mm 2 m/s 756 mmHg 53%
    21:00 +15°C° 0 mm 2 m/s 756 mmHg 55%
    22:00 +14°C° 0 mm 2 m/s 756 mmHg 57%
    23:00 +13°C° 0 mm 2 m/s 756 mmHg 60%

    Depois de amanhã, 26 Abril, Sexta-feira

    Tempo Temperatura Precipitação Vento Pressão Humidade
    00:00 +13°C° 0 mm 2 m/s 756 mmHg 61%
    01:00 +12°C° 0 mm 2 m/s 756 mmHg 63%
    02:00 +12°C° 0 mm 2 m/s 756 mmHg 65%
    03:00 +12°C° 0 mm 2 m/s 756 mmHg 66%
    04:00 +10°C° 0 mm 2 m/s 755 mmHg 67%
    05:00 +10°C° 0 mm 2 m/s 755 mmHg 69%
    06:00 +12°C° 0 mm 3 m/s 755 mmHg 62%
    07:00 +14°C° 0 mm 3 m/s 755 mmHg 56%
    08:00 +17°C° 0 mm 3 m/s 755 mmHg 49%
    09:00 +19°C° 0 mm 4 m/s 755 mmHg 45%
    10:00 +20°C° 0 mm 5 m/s 755 mmHg 41%
    11:00 +21°C° 0 mm 6 m/s 754 mmHg 37%
    12:00 +22°C° 0 mm 6 m/s 754 mmHg 35%
    13:00 +22°C° 0 mm 6 m/s 754 mmHg 34%
    14:00 +23°C° 0 mm 6 m/s 753 mmHg 33%
    15:00 +22°C° 0 mm 5 m/s 753 mmHg 33%
    16:00 +22°C° 0 mm 5 m/s 752 mmHg 34%
    17:00 +21°C° 0 mm 4 m/s 752 mmHg 34%
    18:00 +19°C° 0 mm 4 m/s 752 mmHg 39%
    19:00 +17°C° 0 mm 3 m/s 752 mmHg 43%
    20:00 +14°C° 0 mm 3 m/s 752 mmHg 48%
    21:00 +14°C° 0 mm 3 m/s 752 mmHg 50%
    22:00 +13°C° 0 mm 3 m/s 751 mmHg 52%
    23:00 +13°C° 0 mm 3 m/s 751 mmHg 53%

    27 Abril, Sábado

    Tempo Temperatura Precipitação Vento Pressão Humidade
    00:00 +12°C° 0 mm 3 m/s 751 mmHg 55%
    01:00 +12°C° 0 mm 3 m/s 751 mmHg 57%
    02:00 +12°C° 0 mm 3 m/s 750 mmHg 59%
    03:00 +12°C° 0 mm 3 m/s 750 mmHg 62%
    04:00 +11°C° 0 mm 3 m/s 750 mmHg 65%
    05:00 +11°C° 0 mm 4 m/s 750 mmHg 68%
    06:00 +13°C° 0 mm 4 m/s 749 mmHg 65%
    07:00 +14°C° 0 mm 4 m/s 749 mmHg 62%
    08:00 +15°C° 0 mm 5 m/s 749 mmHg 59%
    09:00 +17°C° 0 mm 5 m/s 749 mmHg 54%
    10:00 +20°C° 0 mm 5 m/s 748 mmHg 49%
    11:00 +21°C° 0 mm 6 m/s 748 mmHg 44%
    12:00 +22°C° 0 mm 6 m/s 748 mmHg 44%
    13:00 +23°C° 0 mm 6 m/s 747 mmHg 43%
    14:00 +24°C° 0 mm 6 m/s 747 mmHg 42%
    15:00 +23°C° 0 mm 5 m/s 746 mmHg 45%
    16:00 +23°C° 0 mm 5 m/s 746 mmHg 48%
    17:00 +23°C° 0 mm 4 m/s 746 mmHg 51%
    18:00 +21°C° 0.4 mm 3 m/s 746 mmHg 60%
    19:00 +19°C° 0.4 mm 3 m/s 746 mmHg 69%
    20:00 +17°C° 0.4 mm 2 m/s 746 mmHg 77%
    21:00 +17°C° 0.1 mm 2 m/s 746 mmHg 80%
    22:00 +17°C° 0.1 mm 2 m/s 746 mmHg 83%
    23:00 +16°C° 0.1 mm 2 m/s 746 mmHg 85%

    28 Abril, Domingo

    Tempo Temperatura Precipitação Vento Pressão Humidade
    00:00 +16°C° 0.7 mm 2 m/s 746 mmHg 89%
    01:00 +15°C° 0.7 mm 2 m/s 746 mmHg 92%
    02:00 +15°C° 0.7 mm 2 m/s 746 mmHg 95%
    03:00 +15°C° 0.4 mm 2 m/s 746 mmHg 95%
    04:00 +15°C° 0.4 mm 2 m/s 746 mmHg 95%
    05:00 +15°C° 0.4 mm 2 m/s 746 mmHg 95%
    06:00 +16°C° 0 mm 2 m/s 746 mmHg 90%
    07:00 +17°C° 0 mm 2 m/s 746 mmHg 86%
    08:00 +19°C° 0 mm 1 m/s 746 mmHg 81%
    09:00 +20°C° 0.5 mm 1 m/s 746 mmHg 76%
    10:00 +21°C° 0.5 mm 1 m/s 747 mmHg 72%
    11:00 +23°C° 0.5 mm 1 m/s 747 mmHg 67%
    12:00 +23°C° 0.9 mm 2 m/s 747 mmHg 63%
    13:00 +24°C° 0.9 mm 2 m/s 747 mmHg 60%
    14:00 +24°C° 0.9 mm 2 m/s 747 mmHg 56%
    15:00 +24°C° 0.5 mm 2 m/s 747 mmHg 59%
    16:00 +23°C° 0.5 mm 2 m/s 747 mmHg 62%
    17:00 +23°C° 0.5 mm 2 m/s 747 mmHg 65%
    18:00 +20°C° 0.3 mm 2 m/s 747 mmHg 71%
    19:00 +19°C° 0.3 mm 3 m/s 747 mmHg 77%
    20:00 +17°C° 0.3 mm 4 m/s 748 mmHg 84%
    21:00 +17°C° 0 mm 4 m/s 748 mmHg 86%
    22:00 +15°C° 0 mm 4 m/s 748 mmHg 88%
    23:00 +14°C° 0 mm 5 m/s 749 mmHg 89%

    29 Abril, Segunda-feira

    Tempo Temperatura Precipitação Vento Pressão Humidade
    00:00 +14°C° 0 mm 5 m/s 749 mmHg 90%
    01:00 +13°C° 0 mm 5 m/s 749 mmHg 91%
    02:00 +12°C° 0 mm 5 m/s 749 mmHg 92%
    03:00 +12°C° 0 mm 5 m/s 749 mmHg 91%
    04:00 +12°C° 0 mm 5 m/s 749 mmHg 90%
    05:00 +12°C° 0 mm 5 m/s 750 mmHg 89%
    06:00 +12°C° 0 mm 5 m/s 750 mmHg 87%
    07:00 +11°C° 0 mm 6 m/s 750 mmHg 85%
    08:00 +11°C° 0 mm 6 m/s 751 mmHg 83%
    09:00 +11°C° 0 mm 6 m/s 751 mmHg 80%
    10:00 +13°C° 0 mm 6 m/s 751 mmHg 77%
    11:00 +14°C° 0 mm 6 m/s 751 mmHg 73%
    12:00 +14°C° 0 mm 6 m/s 751 mmHg 72%
    13:00 +14°C° 0 mm 6 m/s 751 mmHg 71%
    14:00 +15°C° 0 mm 6 m/s 751 mmHg 69%
    15:00 +14°C° 0 mm 5 m/s 751 mmHg 71%
    16:00 +14°C° 0 mm 5 m/s 751 mmHg 72%
    17:00 +14°C° 0 mm 4 m/s 751 mmHg 73%
    18:00 +13°C° 0 mm 4 m/s 752 mmHg 74%
    19:00 +12°C° 0 mm 4 m/s 752 mmHg 75%
    20:00 +12°C° 0 mm 4 m/s 752 mmHg 75%
    21:00 +12°C° 0 mm 4 m/s 752 mmHg 75%
    22:00 +12°C° 0 mm 4 m/s 753 mmHg 74%
    23:00 +12°C° 0 mm 5 m/s 753 mmHg 73%
    Mostrar mais